Location: Sungai Buloh
(3.1000°N, 113.0000°E)
Time: 17:10:51
(UTC+00:00)

Meteor 2-5 Rocket - Pass Details

Date: 12 January 2026
Orbit: 833 x 910 km, 81.2° (Epoch: 10 February)

Event Time Altitude Azimuth Distance (km) Brightness Sun altitude
Rises 12:38:45 0° 194° (SSW) 3,383 7.3 -29.5°
Reaches altitude 10° 12:41:12 10° 198° (SSW) 2,442 6.6 -30.1°
Maximum altitude 12:46:35 55° 275° (W) 993 4.2 -31.3°
Enters shadow 12:46:53 54° 288° (WNW) 1,001 4.2 -31.4°
